Location: Neuschönfeld
(53.2467°N, 14.3019°E)
Time: 22:37:13
(UTC+00:00)

Daily predictions for brighter satellites

Satellite Brightness Start Highest point End
(mag) Time Altitude Azimuth Time Altitude Azimuth Time Altitude Azimuth
PSLV R/B 3.7 15:54:51 10° SE 15:58:42 44° ENE 16:02:37 10° N
ATLAS CENTAUR R/B 4.4 15:57:42 10° WNW 16:00:50 22° WSW 16:03:58 10° SSW
Meteor 1-23 Rocket 4.4 15:56:51 10° S 16:02:16 55° E 16:07:43 10° NNE
ATLAS 2AS CENTAUR R/B 3.0 15:56:01 10° NW 16:02:40 46° NNE 16:09:06 10° E
Aureole 3 Rocket 4.0 16:00:54 10° NNW 16:04:12 38° W 16:07:04 10° SSW
Lacrosse 5 4.2 16:00:11 10° WNW 16:04:31 28° SW 16:08:50 10° S
SMAP 3.0 16:01:07 10° SSE 16:05:45 73° ENE 16:10:25 10° NNW
Cosmos 1953 2.8 16:03:25 10° N 16:06:49 32° ENE 16:10:11 10° SE
SL-19 R/B 4.4 16:02:24 10° SSE 16:08:23 84° ENE 16:14:04 10° NNW
Cosmos 1818 4.1 16:03:13 10° NW 16:08:24 40° NNE 16:13:31 10° E
SL-16 R/B 3.2 16:03:14 10° NNE 16:09:23 60° WNW 16:15:30 10° SW
Cosmos 2369 Rocket 3.4 16:05:49 10° NNW 16:10:09 22° NNE 16:14:30 10° E
ADEOS Rocket 4.0 16:06:30 10° S 16:11:50 46° W 16:17:07 10° NNW
Meteor 1-13 Rocket 4.5 16:07:08 10° SSW 16:13:03 84° WNW 16:19:04 10° NNE
ACS3 Solar Sail 2.5 16:08:08 10° ESE 16:13:46 34° ENE 16:19:24 10° N
CZ-2D R/B 3.6 16:09:46 10° SSE 16:14:02 88° W 16:18:17 10° NNW
COSMOS 2428 2.9 16:08:58 10° S 16:14:29 55° ESE 16:20:03 10° NE
Cosmos 1634 Rocket 4.0 16:08:36 10° N 16:14:59 81° E 16:21:19 10° SSE
Cosmos 2333 Rocket 3.0 16:10:10 10° WSW 16:15:37 48° NW 16:21:08 10° NNE
Cosmos 990 Rocket 4.0 16:10:37 10° NNW 16:15:54 88° ENE 16:21:09 10° SSE
Cosmos 372 Rocket 4.2 16:12:16 10° NNW 16:17:09 44° NE 16:22:02 10° SE
DNEPR-1 R/B 3.7 16:12:08 10° NW 16:17:18 77° NE 16:21:42 10° SE
Cosmos 1174 3.6 16:15:01 10° NW 16:18:30 89° SW 16:22:42 10° SE
IGS 5A 3.4 16:18:55 10° SSE 16:22:52 61° ENE 16:26:51 10° N
Cosmos 1869 Rocket 3.9 16:19:19 10° NNW 16:23:45 70° W 16:28:10 10° S
Cosmos 2322 Rocket 3.3 16:19:50 10° WSW 16:25:03 38° NW 16:30:19 10° NNE
Meteor 1-16 Rocket 4.1 16:20:34 10° N 16:26:02 73° ENE 16:31:37 10° SSE
JB-3 4.2 16:22:53 10° NNE 16:26:47 87° E 16:30:36 10° SSW
Cosmos 2360 Rocket 3.2 16:22:40 10° WSW 16:28:02 42° NW 16:33:27 10° NNE
AQUARIUS 4.1 16:23:52 10° SSE 16:28:17 80° ENE 16:32:45 10° NNW
BREEZE-M TANK 4.4 16:27:31 10° WSW 16:30:42 27° S 16:34:52 10° SE
Cosmos 2344 3.6 16:24:42 10° SSW 16:32:03 57° SE 16:38:46 12° NE
Meteor 2-17 Rocket 4.4 16:26:47 10° S 16:32:46 64° E 16:38:45 10° NNE
SL-16 R/B 3.8 16:30:33 10° W 16:35:19 27° NW 16:40:06 10° NNE
Cosmos 1937 Rocket 3.7 16:31:58 10° NNW 16:36:58 48° ENE 16:41:57 10° SE
Cosmos 1707 Rocket 3.9 16:33:41 10° SSE 16:37:52 43° E 16:42:04 10° NNE
Okean 3 3.7 16:34:10 10° SSE 16:38:04 45° E 16:42:03 10° NNE
ASTEX 1 4.4 16:34:28 10° SSW 16:39:11 50° W 16:43:56 10° NNW
Meteor 1-31 Rocket 3.2 16:36:38 10° SE 16:39:50 32° ENE 16:43:05 10° N
Okean 2 3.7 16:38:47 10° SSE 16:42:28 39° E 16:46:12 10° NNE
Cosmos 1943 Rocket 2.3 16:38:39 10° NNW 16:44:21 82° WSW 16:49:58 10° SSE
CZ-4 R/B 4.3 16:42:11 10° SSE 16:46:08 61° ENE 16:50:07 10° N
CZ-2C R/B 3.5 16:48:33 21° E 16:49:26 24° ENE 16:52:13 10° N
RESURS DK-1 2.6 16:47:20 10° NW 16:51:22 72° WSW 16:55:22 10° SSE
Cosmos 2237 Rocket 2.5 16:46:15 10° S 16:51:40 47° ESE 16:56:08 15° NE
Cosmos 1862 Rocket 3.6 16:51:26 10° S 16:55:43 57° E 17:00:05 10° NNE
Tsikada Rocket 4.5 16:49:42 10° SSW 16:55:46 62° WNW 17:01:56 10° N
Cosmos 1455 4.0 16:54:29 10° NNW 16:57:17 28° W 17:00:05 10° SSW
BlueWalker 3 1.8 16:53:58 10° W 16:57:38 79° SSW 16:59:51 22° ESE
Cosmos 2278 Rocket 3.0 16:52:49 10° NW 16:58:22 54° WSW 17:03:50 10° S
BREEZE-M DEB (TANK) 2.7 16:56:55 10° SW 16:59:01 29° SSE 17:00:08 22° ESE
COSMO-SKYMED 1 2.8 16:55:36 10° NNE 16:59:49 47° E 17:04:02 10° S
NOAA 6 4.0 16:56:47 10° SSE 17:01:48 62° ENE 17:06:53 10° N
Cosmos 2219 Rocket 3.3 16:57:49 10° WSW 17:03:06 41° NW 17:08:25 10° NNE
Cosmos 1782 Rocket 4.4 17:00:42 10° N 17:04:23 26° ENE 17:04:31 26° ENE
CZ-4B R/B 3.5 17:01:14 10° SSE 17:04:45 56° ENE 17:08:15 10° N
ISS -2.4 17:02:18 10° SSW 17:05:12 27° SSE 17:06:06 24° SE
CZ-4C R/B 2.6 17:01:58 10° S 17:06:00 34° ESE 17:08:01 25° ENE
Nadezhda 4 Rocket 4.0 17:03:34 10° SSE 17:09:29 54° E 17:15:28 10° NNE
USA 306 1.4 17:10:25 10° WNW 17:12:42 90° ENE 17:12:55 72° ESE
Cosmos 1733 Rocket 3.7 17:09:12 10° NNW 17:13:31 57° W 17:17:50 10° S
Cosmos 1763 Rocket 3.7 17:08:27 10° SSW 17:13:38 73° WNW 17:18:30 12° NNE
YAOGAN 1 2.4 17:09:35 10° SSE 17:13:49 64° ENE 17:18:04 10° N
ATLAS 5 CENTAUR R/B 3.0 17:13:34 10° SSE 17:14:21 13° SSE 17:14:21 13° SSE
CZ-4B R/B 4.4 17:18:54 22° NE 17:18:54 22° NE 17:22:21 10° N
Cosmos 540 Rocket 3.5 17:14:11 10° SSW 17:19:20 80° WNW 17:23:46 14° NNE
Landsat 7 3.9 17:15:18 10° S 17:20:00 78° WSW 17:24:44 10° NNW
USA 215 3.3 17:16:12 24° ENE 17:20:23 71° NNW 17:26:54 10° W
SPOT 1/Viking Rocket 3.6 17:16:37 10° SE 17:21:38 55° ENE 17:26:40 10° N
Cosmos 2322 4.4 17:16:48 10° SW 17:22:22 52° NW 17:27:28 13° NNE
Cosmos 468 Rocket 3.9 17:18:01 10° SSW 17:23:13 89° ESE 17:27:14 17° NNE
Cosmos 1703 Rocket 4.0 17:20:25 10° SSE 17:24:34 40° E 17:25:04 38° ENE
Cosmos 2228 Rocket 3.4 17:22:12 10° SSW 17:26:43 71° WNW 17:31:18 10° N
Cosmos 1898 Rocket 4.1 17:23:41 10° NNW 17:28:52 58° WSW 17:34:04 10° S
Cosmos 1656 Rocket 3.5 17:23:34 10° NNW 17:29:02 68° NE 17:33:23 17° SE
Resurs 1-3 3.5 17:25:12 10° SSE 17:29:25 58° ENE 17:33:42 10° N
Cosmos 1980 Rocket 4.3 17:28:07 10° NNW 17:30:44 13° N 17:32:57 11° NNE
Cosmos 841 Rocket 3.5 17:27:31 10° S 17:32:40 58° ESE 17:35:00 31° NE
Cosmos 1553 Rocket 4.3 17:31:56 10° N 17:37:42 40° ENE 17:39:06 35° E
Cosmos 1703 4.0 17:34:18 10° S 17:36:27 33° SSE 17:36:27 33° SSE
Okean 1-7 2.9 17:36:03 10° S 17:40:20 88° W 17:43:21 19° N
SL-16 R/B 2.7 17:35:50 10° S 17:40:55 36° ESE 17:40:55 36° ESE
Cosmos 1980 3.7 17:35:44 10° SW 17:41:23 82° NW 17:44:57 24° NNE
Cosmos 1953 4.5 17:39:04 10° NNW 17:42:11 25° W 17:45:17 10° SW
Cosmos 1300 Rocket 3.9 17:39:22 10° N 17:42:41 44° NNE 17:42:41 44° NNE
CZ-4 R/B 3.7 17:48:42 12° N 17:48:42 12° N 17:49:06 10° N
SKYMED 2 3.9 17:43:56 12° N 17:47:56 64° WNW 17:52:13 10° SSW
ADEOS 3.6 17:48:47 46° ESE 17:49:52 54° ENE 17:54:57 10° N
NOSS 0 Rocket 4.3 17:45:25 10° SW 17:51:30 62° NW 17:55:40 21° NNE
Cosmos 1818 3.9 17:46:51 10° NW 17:52:17 65° SW 17:56:19 18° SSE
ATLAS 2AS CENTAUR R/B 2.8 17:47:12 10° NW 17:54:03 75° SW 17:59:05 19° SSE
DMSP B5D1-3 4.5 17:54:00 55° E 17:54:20 56° E 17:59:19 10° S
Resurs 01 Rocket 3.2 17:57:26 22° N 17:57:26 22° N 17:59:11 10° N
Cosmos 2369 Rocket 2.0 17:49:33 10° NNW 17:55:11 71° NE 17:56:55 45° SE
Cosmos 1092 Rocket 3.9 17:49:18 10° S 17:55:22 61° E 18:01:31 10° NNE
ACS3 Solar Sail 2.4 17:50:42 10° S 17:57:02 62° W 18:03:22 10° NNW
CBERS 1 LM4 rocket 4.4 17:52:50 10° SSE 17:57:57 81° ENE 18:03:17 10° NNW
COSMOS 2428 3.9 17:53:42 10° WSW 17:58:59 38° NW 18:02:52 17° NNE
Cosmos 2333 Rocket 4.3 17:57:30 10° WNW 18:01:21 18° NNW 18:04:33 12° NNE
Cosmos 1908 Rocket 4.4 18:02:21 10° NNW 18:06:35 50° W 18:10:44 10° S
BREEZE-M DEB (TANK) 3.3 18:01:08 10° W 18:07:22 53° SSW 18:07:22 53° SSW
Cosmos 2322 Rocket 4.4 18:07:23 10° WNW 18:10:46 16° NNW 18:13:26 12° N
PAYLOAD B 4.2 18:12:31 61° NE 18:12:31 61° NE 18:17:51 10° NNW
Meteor 2-12 Rocket 4.4 18:06:41 10° S 18:12:47 87° WNW 18:18:57 10° N
CZ-4B DEB 4.0 18:12:01 57° SE 18:13:07 75° ENE 18:18:37 10° NNW
Cosmos 2360 Rocket 4.3 18:10:00 10° WNW 18:13:36 17° NNW 18:16:23 12° N
CZ-4B R/B 4.2 18:18:58 38° N 18:18:58 38° N 18:22:05 10° NNW
Cosmos 2297 3.8 18:12:27 10° NW 18:18:12 77° WSW 18:20:17 41° SSE
Cosmos 1627 Rocket 4.4 18:12:04 10° S 18:18:28 87° E 18:24:53 10° N
Cosmos 2263 4.0 18:13:27 10° NNW 18:19:11 80° ENE 18:19:34 75° ESE
CSL-04 Rocket 4.4 18:21:42 37° N 18:21:42 37° N 18:25:02 10° N
SL-16 R/B 4.4 18:18:40 10° NW 18:21:29 14° N 18:23:11 12° N
CZ-2C R/B 4.3 18:22:18 30° W 18:22:18 30° W 18:25:13 10° NNW
Cosmos 2026 Rocket 4.0 18:17:46 10° S 18:24:11 85° WNW 18:30:35 10° N
Cosmos 1932 4.3 18:19:53 10° SSW 18:25:50 67° SE 18:25:50 67° SE
BREEZE-M DEB (TANK) 3.4 18:19:06 10° WSW 18:28:56 55° S 18:28:56 55° S
BlueWalker 3 4.0 18:31:54 10° W 18:33:53 24° WSW 18:33:53 24° WSW
Cosmos 2237 Rocket 3.2 18:30:24 10° WSW 18:35:49 43° NW 18:37:58 31° N
ISS -0.7 18:38:18 10° WSW 18:39:01 15° WSW 18:39:01 15° WSW
Cosmos 2344 4.0 18:39:27 10° WSW 18:46:32 53° NNW 18:48:48 40° NNE
Cosmos 2219 Rocket 4.3 18:45:09 10° WNW 18:48:38 16° NNW 18:50:24 14° N
CZ-4C R/B 2.7 18:49:13 10° WSW 18:53:04 52° WNW 18:53:04 52° WNW
CZ-4B R/B 4.4 19:00:45 34° NNW 19:00:45 34° NNW 19:03:41 10° NNW
Meteor 1-24 Rocket 4.3 18:53:22 10° SSW 18:58:09 57° SW 18:58:09 57° SW
USA 215 3.3 19:03:33 67° NNW 19:03:33 67° NNW 19:09:40 10° WNW
Cosmos 1980 Rocket 4.5 19:13:14 10° NNW 19:14:42 15° N 19:14:42 15° N
SL-16 R/B 3.5 19:19:22 10° SW 19:22:50 35° WSW 19:22:50 35° WSW
Cosmos 2369 Rocket 4.0 19:34:13 10° NW 19:38:42 25° WSW 19:38:45 25° WSW
